This demonstration page uses our WeatherBlox Daily Observations layout. Learn more.

Hourly Observations for December 3, 2016

Temp ( °F °C ) Dew Point ( °F °C ) Humidity (%) Winds ( mph kmh ) Pressure ( in mb ) Visibility ( mi km ) Precip ( " mm )
12:15 am 00:15 Cloudy 43 6 32 0 66 66 W 7 11 30.18 1022 10 16.0934 0 0
12:35 am 00:35 Cloudy 43 6 32 0 66 66 undefined N/A 30.18 1022 10 16.0934 0 0
12:55 am 00:55 Cloudy 43 6 32 0 66 66 WSW 6 9 30.18 1022 10 16.0934 0 0
1:15 am 01:15 Cloudy 43 6 32 0 66 66 undefined N/A 30.18 1022 10 16.0934 0 0
1:35 am 01:35 Cloudy 43 6 32 0 66 66 WSW 6 9 30.18 1022 10 16.0934 0 0
2:15 am 02:15 Cloudy 43 6 32 0 66 66 W 9 15 30.18 1022 10 16.0934 0 0
2:55 am 02:55 Cloudy 43 6 32 0 66 66 NW 9 15 30.18 1022 10 16.0934 0 0
3:15 am 03:15 Cloudy 43 6 32 0 66 66 NW 10 17 30.18 1022 10 16.0934 0 0
3:55 am 03:55 Cloudy 43 6 32 0 66 66 NW 10 17 30.18 1022 10 16.0934 0 0
4:15 am 04:15 Cloudy 43 6 32 0 66 66 WNW 7 11 30.18 1022 10 16.0934 0 0
4:35 am 04:35 Mostly Cloudy 43 6 32 0 66 66 W 9 15 30.18 1022 10 16.0934 0 0
4:55 am 04:55 Partly Cloudy 41 5 32 0 70 70 W 10 17 30.18 1022 10 16.0934 0 0
5:15 am 05:15 Clear 41 5 32 0 70 70 WNW 13 20 30.21 1023 10 16.0934 0 0
5:35 am 05:35 Clear 41 5 32 0 70 70 WNW 8 13 30.21 1023 10 16.0934 0 0
5:55 am 05:55 Partly Cloudy 41 5 32 0 70 70 NW 9 15 30.21 1023 10 16.0934 0 0
6:15 am 06:15 Partly Cloudy 41 5 32 0 70 70 WNW 12 19 30.21 1023 10 16.0934 0 0
6:35 am 06:35 Clear 41 5 32 0 70 70 WNW 15 24 30.21 1023 10 16.0934 0 0
6:55 am 06:55 Partly Cloudy 41 5 32 0 70 70 WNW 8 13 30.24 1024 10 16.0934 0 0
7:15 am 07:15 Mostly Cloudy 41 5 32 0 70 70 W 5 7 30.24 1024 10 16.0934 0 0
7:35 am 07:35 Cloudy 41 5 32 0 70 70 W 8 13 30.24 1024 10 16.0934 0 0
7:55 am 07:55 Mostly Cloudy 41 5 32 0 70 70 W 12 19 30.27 1025 10 16.0934 0 0
8:15 am 08:15 Cloudy 43 6 32 0 66 66 W 10 17 30.27 1025 10 16.0934 0 0
8:35 am 08:35 Cloudy 43 6 32 0 66 66 W 14 22 30.27 1025 10 16.0934 0 0
8:55 am 08:55 Cloudy 43 6 32 0 66 66 W 13 20 30.27 1025 10 16.0934 0 0
9:15 am 09:15 Cloudy 43 6 32 0 66 66 WNW 13 20 30.27 1025 10 16.0934 0 0
9:35 am 09:35 Cloudy 43 6 32 0 66 66 W 15 24 30.27 1025 10 16.0934 0 0
9:55 am 09:55 Cloudy 45 7 32 0 61 61 WNW 16 26 30.3 1026 10 16.0934 0 0
10:15 am 10:15 Cloudy 45 7 32 0 61 61 WNW 18 30 30.3 1026 10 16.0934 0 0
10:35 am 10:35 Cloudy 45 7 32 0 61 61 NW 14 22 30.3 1026 10 16.0934 0 0
10:55 am 10:55 Cloudy 46 8 34 1 62 62 NW 15 24 30.3 1026 10 16.0934 0 0
11:15 am 11:15 Cloudy 45 7 32 0 61 61 WNW 17 28 30.27 1025 10 16.0934 0 0
11:35 am 11:35 Cloudy 45 7 32 0 61 61 WNW 14 22 30.27 1025 10 16.0934 0 0
11:55 am 11:55 Cloudy 46 8 32 0 57 57 NW 17 28 30.27 1025 10 16.0934 0 0
12:15 pm 12:15 Cloudy 46 8 32 0 57 57 NNW 17 28 30.27 1025 10 16.0934 0 0
12:35 pm 12:35 Cloudy 46 8 32 0 57 57 NNW 16 26 30.27 1025 10 16.0934 0 0
12:55 pm 12:55 Cloudy 46 8 32 0 57 57 N 16 26 30.24 1024 10 16.0934 0 0
1:15 pm 13:15 Cloudy 46 8 32 0 57 57 N 10 17 30.24 1024 10 16.0934 0 0
1:35 pm 13:35 Cloudy 46 8 32 0 57 57 NW 14 22 30.24 1024 10 16.0934 0 0
1:55 pm 13:55 Cloudy 46 8 32 0 57 57 NNW 13 20 30.24 1024 10 16.0934 0 0
2:15 pm 14:15 Mostly Cloudy 46 8 32 0 57 57 NW 12 19 30.24 1024 10 16.0934 0 0
2:35 pm 14:35 Mostly Cloudy 45 7 32 0 61 61 NW 13 20 30.27 1025 10 16.0934 0 0
2:55 pm 14:55 Cloudy 46 8 32 0 57 57 NNW 21 33 30.27 1025 10 16.0934 0 0
3:15 pm 15:15 Mostly Cloudy 45 7 32 0 61 61 NW 22 35 30.27 1025 10 16.0934 0 0
3:35 pm 15:35 Cloudy 45 7 32 0 61 61 NW 14 22 30.3 1026 10 16.0934 0 0
3:55 pm 15:55 Cloudy 45 7 32 0 61 61 WNW 10 17 30.3 1026 10 16.0934 0 0
4:15 pm 16:15 Mostly Cloudy 45 7 32 0 61 61 WNW 18 30 30.27 1025 10 16.0934 0 0
4:35 pm 16:35 Partly Cloudy 43 6 32 0 66 66 WNW 13 20 30.27 1025 10 16.0934 0 0
4:55 pm 16:55 Mostly Cloudy 43 6 32 0 66 66 WNW 20 31 30.3 1026 10 16.0934 0 0
5:35 pm 17:35 Cloudy 43 6 32 0 66 66 WNW 15 24 30.3 1026 10 16.0934 0 0
5:55 pm 17:55 Cloudy 43 6 32 0 66 66 W 10 17 30.3 1026 10 16.0934 0 0
6:15 pm 18:15 Cloudy 43 6 32 0 66 66 WNW 10 17 30.3 1026 10 16.0934 0 0
6:35 pm 18:35 Cloudy 43 6 32 0 66 66 WNW 13 20 30.3 1026 10 16.0934 0 0
6:55 pm 18:55 Cloudy 43 6 32 0 66 66 WNW 16 26 30.3 1026 10 16.0934 0 0
7:15 pm 19:15 Cloudy 43 6 32 0 66 66 WNW 15 24 30.3 1026 10 16.0934 0 0
7:35 pm 19:35 Cloudy 43 6 32 0 66 66 NW 14 22 30.3 1026 10 16.0934 0 0
7:55 pm 19:55 Cloudy 41 5 32 0 70 70 WNW 15 24 30.3 1026 10 16.0934 0 0
8:15 pm 20:15 Cloudy 41 5 32 0 70 70 WNW 14 22 30.3 1026 10 16.0934 0 0
8:35 pm 20:35 Cloudy 41 5 32 0 70 70 WNW 14 22 30.3 1026 10 16.0934 0 0
8:55 pm 20:55 Cloudy 41 5 32 0 70 70 WNW 10 17 30.3 1026 10 16.0934 0 0
9:15 pm 21:15 Cloudy 41 5 32 0 70 70 W 13 20 30.3 1026 10 16.0934 0 0
9:35 pm 21:35 Cloudy 41 5 32 0 70 70 WNW 12 19 30.33 1027 10 16.0934 0 0
9:55 pm 21:55 Cloudy 41 5 32 0 70 70 WNW 15 24 30.33 1027 10 16.0934 0 0
10:15 pm 22:15 Cloudy 41 5 32 0 70 70 WNW 15 24 30.33 1027 10 16.0934 0 0
10:35 pm 22:35 Cloudy 41 5 32 0 70 70 WNW 13 20 30.33 1027 10 16.0934 0 0
10:55 pm 22:55 Cloudy 41 5 32 0 70 70 WNW 13 20 30.33 1027 10 16.0934 0 0
11:15 pm 23:15 Cloudy 41 5 32 0 70 70 WNW 12 19 30.33 1027 10 16.0934 0 0
11:35 pm 23:35 Mostly Cloudy 39 4 32 0 75 75 WNW 12 19 30.33 1027 10 16.0934 0 0
11:55 pm 23:55 Cloudy 39 4 32 0 75 75 WNW 12 19 30.33 1027 10 16.0934 0 0

Powered by AerisWeather